Printer-friendly version

IAU Minor Planet Center

Minor Planet Center

MPEC 2009-U86 : 2009 UA19

The following Minor Planet Electronic Circular may be linked-to from your own Web pages, but must not otherwise be redistributed electronically.

A form allowing access to any MPEC is at the bottom of this page.


Read MPEC 2009-U85 Read MPEC 2009-U87


M.P.E.C. 2009-U86                                Issued 2009 Oct. 24, 23:24 UT

     The Minor Planet Electronic Circulars contain information on unusual
         minor planets and routine data on comets.  They are published
   on behalf of Commission 20 of the International Astronomical Union by the
          Minor Planet Center, Smithsonian Astrophysical Observatory,
                          Cambridge, MA 02138, U.S.A.

             Prepared using the Tamkin Foundation Computer Network

                              MPC@CFA.HARVARD.EDU
          URL http://www.cfa.harvard.edu/iau/mpc.html  ISSN 1523-6714

                                   2009 UA19

Observations:
     K09U19A* C2009 10 24.14331 23 09 29.23 -03 27 20.0          20.9 V EU086G96
     K09U19A  C2009 10 24.15080 23 09 28.22 -03 27 11.1          20.3 V EU086G96
     K09U19A  C2009 10 24.15803 23 09 27.21 -03 27 02.8          20.8 V EU086G96
     K09U19A  C2009 10 24.16534 23 09 26.24 -03 26 54.1          20.6 V EU086G96
     K09U19A  C2009 10 24.19499 23 09 22.28 -03 26 18.9          20.2 V EU086G96
     K09U19A  C2009 10 24.19583 23 09 22.17 -03 26 17.9          20.2 V EU086G96
     K09U19A  C2009 10 24.19661 23 09 22.06 -03 26 17.0          20.2 V EU086G96
     K09U19A  C2009 10 24.19745 23 09 21.96 -03 26 16.0          20.1 V EU086G96
     K09U19A  C2009 10 24.20550 23 09 20.83 -03 26 06.9          19.8 R EU086H01
     K09U19A  C2009 10 24.21251 23 09 19.89 -03 25 58.5          19.9 R EU086H01
     K09U19A  C2009 10 24.22022 23 09 18.87 -03 25 49.5          19.9 R EU086H01
     K09U19A  C2009 10 24.22479 23 09 18.26 -03 25 44.3          19.8 R EU086H01
     K09U19A  C2009 10 24.23996 23 09 16.21 -03 25 27.6          20.1 R EU086H36
     K09U19A  C2009 10 24.24613 23 09 15.42 -03 25 20.8          20.3 R EU086H36
     K09U19A  C2009 10 24.25772 23 09 13.78 -03 25 07.3          20.6 R EU086H36
     K09U19A  C2009 10 24.84909 23 07 57.83 -03 13 33.7          20.6 R EU086J95
     K09U19A  C2009 10 24.91182 23 07 49.64 -03 12 21.4          20.2 R EU086J95

Observer details:
G96 Mt. Lemmon Survey.  Observer A. Boattini.  Measurers E. C. Beshore,
    A. Boattini, G. J. Garradd, A. R. Gibbs, A. D. Grauer, R. E. Hill,
    R. A. Kowalski, S. M. Larson, R. H. McNaught.  1.5-m reflector + CCD.
H01 Magdalena Ridge Observatory, Socorro.  Observers W. H. Ryan, E. V. Ryan.
    Measurer W. H. Ryan.  2.4-m f/8.9 reflector + CCD.
H36 Sandlot Observatory, Scranton.  Observer G. Hug.  0.56-m reflector + CCD.
J95 Great Shefford.  Observer P. Birtwhistle.  0.40-m f/6.0 Schmidt-Cassegrain
    + CCD.

Orbital elements:
2009 UA19                                                Earth MOID = 0.3511 AU
Epoch 2010 Jan. 4.0 TT = JDT 2455200.5                  MPC
M 298.36723              (2000.0)            P               Q
n   0.45277439     Peri.  123.76801     -0.62954568     -0.76919185
a   1.6796346      Node     8.37080     +0.17331243     -0.27655472
e   0.2644654      Incl.   48.84926     +0.75738698     -0.57607412
P   2.18           H   18.2           G   0.15           U   9
Residuals in seconds of arc
091024 G96  0.3+  0.2-    091024 G96  0.1-  0.3+    091024 H36  0.5+  0.4-
091024 G96  0.2+  0.0     091024 G96  0.1+  0.3+    091024 H36  1.0+  0.9-
091024 G96  0.4-  0.2-    091024 H01  0.3-  0.2+    091024 H36  0.6-  1.0-
091024 G96  0.2-  0.1-    091024 H01  0.3-  0.4+    091024 J95  0.2+  0.7+
091024 G96  0.1-  0.3+    091024 H01  0.1-  0.3+    091024 J95  0.2-  0.6-
091024 G96  0.0   0.3+    091024 H01  0.1-  0.1+

Ephemeris:
2009 UA19                a,e,i = 1.68, 0.26, 49                  q = 1.2354
Date    TT    R. A. (2000) Decl.     Delta      r     Elong.  Phase     V
2009 10 16    23 29.46   -06 05.9    0.923    1.845   147.9    16.7    20.2
2009 10 26    23 05.56   -02 51.0    0.980    1.815   133.7    23.3    20.6
2009 11 05    22 48.54   +00 20.4    1.059    1.784   120.8    28.5    20.8
2009 11 15    22 38.10   +03 22.5    1.153    1.751   109.4    32.2    21.1
2009 11 25    22 33.31   +06 16.4    1.253    1.717    99.4    34.6    21.3
2009 12 05    22 33.09   +09 05.5    1.354    1.683    90.6    35.9    21.5
2009 12 15    22 36.50   +11 53.7    1.449    1.647    82.8    36.4    21.6
2009 12 25    22 42.89   +14 44.6    1.536    1.611    76.0    36.3    21.6
2010 01 04    22 51.75   +17 41.2    1.612    1.575    70.0    35.9    21.7
2010 01 14    23 02.80   +20 45.5    1.676    1.539    64.7    35.3    21.7
2010 01 24    23 15.94   +23 59.6    1.725    1.502    60.2    34.7    21.7

Timothy B. Spahr             (C) Copyright 2009 MPC           M.P.E.C. 2009-U86

Read MPEC 2009-U85 Read MPEC 2009-U87


MPEC number:

Enter an
MPEC number in one of the following forms:
  • 1997-B01 (the full form)
  • J97B01 (the packed version of the full form)
  • B01 (the abbreviated form)

Valid HTML 4.01!